sat.trackr.live / text

‹ back to catalog

STARLINK-37445

NORAD 69165 · 2026-111T

PAYLOAD ACTIVE UNKNOWN

§ Identity

Operator
Country
US
Launch date
2026-05-21
Launch site
AFETR
Launch vehicle
Mass (kg)
RCS (m²)

Purposes: comms

External: N2YO · Heavens-Above · Gunter

§ Orbital elements

Epoch: 2026-09-20T00:09:24.642144Z

Period
93.85 min
Inclination
53.1583°
Eccentricity
0.0000870
Mean motion
15.34402473 rev/d
Perigee alt
462.1 km
Apogee alt
463.3 km
Semi-major
6,840.8 km
B*
6.6086e-4
RAAN
67.9862°
Arg perigee
96.2846°
Mean anomaly
263.8256°
Rev number
1,882

§ Raw data

STARLINK-374451 69165U 26111T   26263.00653521  .00022019  00000+0  66086-3 0  99912 69165  53.1583  67.9862 0000870  96.2846 263.8256 15.34402473 18826

JSON: /api/v1/satellites/69165 · /tle

For live sub-satellite position, see the globe view (requires WebGL).

§ Visibility from observer

Set your observer location to see the next 7 days of passes ≥ 10°. The values pass through the URL so the page stays shareable.

No JS? Fill the form by hand. The geolocation button needs JavaScript.